Location: *
(0.1100°N, 5.5000°E)
Time: 14:03:23
(UTC+00:00)

Cosmos 1934 Rocket - Pass Details

Date: 07 December 2022
Orbit: 938 x 998 km, 83.0° (Epoch: 03 February)

Event Time Altitude Azimuth Distance (km) Brightness Sun altitude
Rises 17:55:46 0° 178° (S) 3,606 7.3 -6.1°
Reaches altitude 10° 17:58:16 10° 176° (S) 2,655 6.5 -6.7°
Maximum altitude 18:04:17 69° 93° (E) 998 3.9 -8.0°
Drops below altitude 10° 18:10:16 10° 10° (N) 2,643 6.0 -9.4°
Sets 18:12:45 0° 8° (N) 3,589 6.7 -10.0°
